SCP
0 0 0 0 0 0 0 1 2 3 3 4 4 4 4 3 2 2 1 1 1 1 1 1 1 1 1 0 0 0 0 0 1 1 1 1 1 1 1 1 1 1 1
0 0 0 0 0 0 0 0 1 2 3 4 4 4 4 3 3 2 2 1 1 1 1 1 1 1 1 0 0 0 0 0 1 1 1 1 1 1 1 1 1 1 1
0 0 0 0 0 0 0 0 1 2 2 4 4 4 4 4 3 2 2 1 1 1 1 1 1 1 1 0 0 0 0 0 0 1 1 1 0 0 0 1 1 1 1
0 0 0 0 0 0 0 0 1 1 2 3 4 4 4 4 3 2 1 1 1 1 1 1 1 1 1 0 0 0 0 0 0 0 0 0 0 0 0 0 0 1 1
0 0 0 0 0 0 0 0 1 1 2 3 3 4 4 4 3 2 1 1 1 1 1 1 1 1 1 1 0 0 0 0 0 0 0 0 0 0 0 0 0 0 1
0 0 0 0 0 0 0 0 1 1 2 2 3 3 4 3 3 2 1 1 1 1 1 1 1 1 1 1 0 0 0 0 0 0 0 0 0 0 0 0 0 0 0
0 0 0 0 0 0 0 0 1 1 2 2 3 3 3 3 3 2 1 1 1 1 1 1 1 1 1 1 1 0 0 0 0 0 0 0 0 0 0 0 0 0 0
0 0 0 0 0 0 0 0 0 1 1 2 2 2 2 3 3 2 2 1 1 1 1 1 0 1 1 1 1 0 0 0 0 0 0 0 0 0 0 0 0 0 0
0 0 0 0 0 0 0 0 0 0 1 1 1 2 2 2 3 2 2 2 1 1 1 1 0 0 1 1 1 0 0 0 0 0 0 0 0 0 0 0 0 0 0
0 0 0 0 0 0 0 0 0 0 0 0 1 1 2 2 2 2 2 2 2 2 1 1 1 0 0 1 1 0 0 0 0 0 0 0 0 0 0 0 0 0 0
0 0 0 0 0 0 0 0 0 0 0 0 0 1 1 1 2 2 1 2 2 2 1 1 1 1 0 0 0 0 0 0 0 0 0 0 0 0 0 0 0 0 0
0 0 0 0 0 0 0 0 0 0 0 0 0 0 1 1 1 1 1 2 2 2 1 1 1 1 0 0 0 0 0 0 0 0 0 0 0 0 0 0 0 0 0
0 0 0 0 0 0 0 0 0 0 0 0 0 0 1 1 1 1 1 1 2 1 1 1 1 1 1 0 0 0 0 0 0 0 0 0 0 0 0 0 0 0 0
0 0 0 0 0 0 1 1 0 0 0 0 0 0 0 1 1 1 1 1 1 1 1 1 1 1 1 1 1 1 0 0 0 0 0 0 0 0 0 0 0 0 0
0 0 0 0 0 0 0 0 0 0 0 0 0 0 0 0 1 1 1 1 1 0 0 0 0 1 1 1 1 1 1 1 1 0 0 0 0 0 0 0 0 0 0
0 0 0 0 0 0 0 0 0 0 0 0 0 0 0 0 0 1 1 0 0 0 0 0 0 0 0 0 0 0 1 1 1 1 1 0 0 0 0 0 0 0 0
0 0 0 0 0 0 0 0 0 0 0 0 0 0 0 0 0 0 0 0 0 0 0 0 0 0 0 0 0 0 0 1 1 1 1 1 0 0 0 0 0 0 0
0 0 0 0 0 0 0 0 0 0 0 0 0 0 0 0 0 0 0 0 0 0 0 0 0 0 0 0 0 0 0 1 1 0 1 1 0 0 0 0 0 0 0
0 0 0 0 0 0 0 0 0 0 0 0 0 0 0 0 0 0 0 0 0 0 0 0 0 0 0 0 0 0 0 1 1 0 0 0 0 0 0 0 0 0 0
0 0 0 0 0 0 0 0 0 0 0 0 0 0 0 0 0 0 0 0 0 0 0 0 0 0 0 0 0 0 0 1 1 0 0 0 0 0 0 0 0 0 0
0 0 0 0 0 0 0 0 0 0 0 0 0 0 0 0 0 0 0 0 0 0 0 0 0 0 0 0 0 0 0 0 1 1 0 0 0 0 0 0 0 0 0
0 0 0 0 0 0 0 0 0 0 0 0 0 0 0 0 0 0 0 0 0 0 0 0 0 0 0 0 0 0 0 0 1 1 1 0 0 0 0 0 0 0 0
0 0 0 0 0 0 0 0 0 0 0 0 0 0 0 0 0 0 0 0 0 0 0 0 0 0 0 0 0 0 0 0 1 1 1 0 0 0 0 0 0 0 0
0 0 0 0 0 0 0 0 0 0 0 0 0 0 0 0 0 0 0 0 0 0 0 0 0 0 0 0 0 0 0 1 1 1 0 0 0 0 0 0 0 0 0
0 0 0 0 0 0 0 0 0 0 0 0 0 0 0 0 0 0 0 0 0 0 0 0 0 0 0 0 0 0 1 1 1 1 1 0 0 0 0 0 0 0 0
0 0 0 0 0 0 0 0 0 0 0 0 0 0 0 0 0 0 0 0 0 0 0 0 0 0 0 0 0 0 0 1 1 1 1 0 0 0 0 0 0 0 0
Wind_Speed
4 3 3 3 2 2 2 2 2 1 1 1 2 2 1 2 2 2 2 2 2 2 2 2 2 2 1 2 1 1 2 2 2 1 2 2 3 4 3 3 4 4 4
4 3 3 2 2 2 2 2 2 2 2 2 2 2 2 2 2 2 2 2 2 2 2 2 2 2 2 2 2 2 2 2 2 2 2 2 3 3 3 4 4 4 4
4 3 3 3 3 3 3 2 2 3 2 2 1 2 2 2 2 2 2 2 3 3 3 3 3 3 3 3 3 3 3 3 3 3 3 3 3 1 3 4 4 4 4
4 3 3 3 3 3 3 3 2 3 3 2 2 2 2 3 3 2 3 3 4 4 4 4 4 4 3 4 4 4 4 4 4 3 3 3 2 3 2 3 4 4 5
3 3 3 3 3 3 2 2 3 3 3 3 3 4 3 3 3 3 3 3 3 4 4 4 4 4 4 4 4 4 4 4 5 4 3 3 3 4 3 3 3 3 3
3 3 3 3 2 2 2 2 3 3 3 3 4 5 4 4 4 4 4 3 3 3 4 5 4 5 4 4 5 5 6 5 6 4 4 4 4 4 4 4 4 4 3
3 3 3 3 3 2 2 3 3 4 4 4 5 5 5 5 6 5 4 4 3 3 4 4 5 5 5 5 5 6 6 6 7 6 5 5 5 4 4 4 3 4 3
3 3 3 3 3 3 3 3 4 5 4 5 5 5 5 4 4 5 5 5 4 4 5 5 5 6 6 5 5 5 6 5 6 7 6 5 5 4 4 4 4 4 4
4 4 4 4 4 4 4 4 5 5 5 5 5 5 5 5 6 6 6 5 5 5 6 6 6 6 6 6 5 5 6 6 6 7 7 6 5 5 5 5 5 5 5
6 5 4 4 4 4 4 5 5 5 5 5 5 4 5 6 6 6 6 6 6 6 6 6 6 6 6 6 6 6 6 7 6 6 7 6 5 5 5 5 5 6 6
7 6 5 5 5 4 4 4 5 5 5 5 5 5 5 5 6 6 6 6 6 6 6 6 6 7 7 7 7 7 7 8 7 7 8 8 7 6 5 5 5 6 5
7 6 5 5 5 5 5 5 5 4 5 5 5 5 5 5 6 6 6 7 7 6 7 7 7 7 7 7 8 8 8 9 9 9 9 9 7 8 7 6 7 6 6
7 7 6 5 5 5 5 5 5 5 4 5 5 5 5 5 5 6 6 7 7 7 7 7 7 8 8 8 8 9 9 9 9 9 10 9 9 10 8 8 7 6 6
7 7 7 6 6 5 5 5 5 4 4 5 4 4 5 5 6 6 6 6 7 7 7 8 8 8 8 9 9 9 9 9 9 9 10 10 10 11 10 8 8 7 7
8 8 8 8 7 6 6 5 5 4 4 4 4 4 5 5 6 6 6 6 7 7 7 8 8 8 8 8 9 9 9 9 10 9 10 10 11 12 10 8 8 8 7
9 9 9 9 8 8 7 6 5 5 4 4 5 5 5 5 6 6 6 6 7 7 7 8 8 9 8 9 11 11 10 10 10 10 10 10 11 12 13 13 13 11 10
9 9 9 9 9 8 7 7 5 4 4 5 5 5 5 6 6 6 6 7 7 7 8 8 8 9 10 11 12 12 11 10 10 10 10 8 8 11 10 11 13 13 14
9 9 8 9 9 8 7 6 5 4 5 5 5 5 5 6 7 7 7 7 7 7 8 8 9 9 10 11 11 11 11 10 11 11 11 10 10 10 10 10 10 11 11
9 8 8 8 8 8 6 6 5 5 5 5 6 6 6 7 7 7 7 7 7 7 8 8 8 9 10 10 11 11 8 8 10 10 10 11 11 12 12 11 10 10 9
8 8 8 8 7 7 6 5 6 5 6 6 7 7 6 7 7 8 8 7 7 8 8 8 8 9 10 10 10 11 7 8 8 8 9 12 12 12 13 11 10 11 9
8 8 7 7 7 7 6 6 7 7 7 7 7 6 7 7 8 8 7 7 7 7 8 8 8 8 10 10 11 11 7 7 7 7 7 7 10 13 14 13 10 10 8
8 8 7 7 7 7 6 7 8 8 7 7 7 6 6 6 6 7 6 6 6 7 7 7 7 6 6 8 9 11 11 10 8 7 6 6 9 10 12 10 10 10 8
7 7 7 8 8 7 6 7 8 8 7 7 7 7 6 6 6 6 6 5 5 5 5 5 5 5 5 5 8 10 10 10 7 6 7 7 7 7 7 9 10 8 6
7 7 7 8 8 8 7 7 8 7 6 7 7 7 6 6 6 5 4 4 5 5 5 5 5 5 5 5 4 5 5 6 5 4 4 5 5 5 5 5 6 6 5
7 6 7 8 9 9 8 8 7 7 7 7 7 7 6 6 5 5 4 5 5 5 6 5 5 5 5 6 8 6 5 4 4 4 3 3 3 3 3 3 4 4 4
7 7 7 8 8 8 8 8 7 7 7 7 7 6 5 5 5 5 5 6 7 9 10 10 9 7 8 9 9 9 8 7 5 4 3 3 3 3 3 3 3 3 4
Wind_Direction
268 276 265 262 270 279 296 298 262 259 264 272 275 249 249 268 270 267 270 269 269 281 280 268 246 230 220 225 224 219 201 198 194 194 203 216 215 214 220 218 210 208 210
258 270 263 261 268 271 276 287 284 256 249 255 267 256 256 251 263 265 263 259 259 263 269 264 254 239 226 217 213 217 211 210 209 202 192 202 213 207 221 215 215 218 210
272 273 268 261 262 267 266 272 279 276 255 248 255 257 247 252 253 265 263 261 260 251 254 253 253 247 232 220 223 223 224 216 219 218 216 208 214 220 210 216 218 218 214
272 264 259 264 264 268 267 269 273 275 273 247 248 242 242 263 283 281 276 269 255 251 248 250 250 245 239 228 224 226 236 221 216 218 239 248 231 218 209 215 219 222 221
278 273 265 260 264 266 267 264 266 272 281 263 252 238 242 256 263 265 270 276 263 253 249 248 249 246 243 238 232 231 234 230 222 217 220 226 225 238 226 220 220 224 228
291 283 273 259 260 256 259 264 263 269 274 269 257 238 240 252 260 264 270 273 275 268 257 246 247 245 243 243 237 234 231 235 230 222 223 220 213 218 228 225 219 227 226
292 290 284 276 271 266 266 267 266 269 273 270 261 243 237 241 247 255 258 265 268 270 269 262 251 248 244 243 244 237 231 233 228 224 227 231 229 227 235 231 226 237 234
305 293 283 277 276 271 271 270 264 266 269 268 269 248 239 238 242 247 254 255 259 264 268 262 259 259 252 244 241 240 236 234 231 228 229 233 232 231 227 226 224 230 230
316 305 293 284 281 278 274 272 271 272 273 270 271 255 244 242 246 250 251 251 256 261 259 262 260 259 258 248 242 239 235 232 232 228 227 231 233 230 234 230 227 229 232
315 309 299 293 288 283 281 275 272 272 277 278 271 262 253 248 246 249 253 255 256 257 257 257 259 258 258 254 242 240 237 232 235 232 225 230 234 230 229 229 235 237 242
309 305 299 294 292 291 288 279 275 276 278 281 276 268 264 258 252 250 254 256 257 255 256 258 259 257 255 254 247 239 236 233 236 232 228 230 232 230 225 227 231 234 237
312 309 299 291 290 293 291 287 282 280 281 282 278 275 274 268 262 256 256 259 260 258 256 257 257 257 255 252 250 245 239 233 234 231 229 230 229 228 227 224 228 228 232
316 314 309 297 293 294 291 287 286 285 287 282 276 277 280 274 269 268 264 260 261 260 258 257 255 255 254 251 251 249 246 238 236 231 229 227 226 228 225 225 229 229 230
314 314 313 309 304 299 296 286 287 288 288 281 275 277 281 277 274 274 270 263 259 258 257 257 256 255 254 251 251 252 251 247 242 236 232 229 227 228 224 224 225 227 227
317 317 315 313 312 308 300 294 292 292 285 278 276 278 282 280 276 276 274 268 262 261 260 259 258 256 254 249 249 253 254 252 247 239 235 233 231 232 227 223 221 221 224
313 316 316 314 311 307 299 297 293 289 281 274 278 281 280 279 274 276 275 273 267 263 262 258 257 256 254 254 257 258 254 255 247 239 237 234 230 230 228 229 226 224 223
308 312 314 311 308 304 295 288 282 284 281 277 278 280 281 280 280 278 275 273 271 265 261 259 257 257 257 257 258 261 260 257 249 240 236 233 230 227 225 226 228 230 231
307 309 310 309 307 306 300 290 286 277 275 276 278 278 279 281 283 278 273 273 272 267 261 259 258 260 259 260 261 264 258 258 253 243 237 235 233 226 224 225 227 230 230
305 305 307 307 309 307 306 302 291 281 277 276 279 281 282 281 280 277 274 273 271 269 265 262 259 260 262 260 264 265 258 255 255 248 240 235 234 227 224 226 227 230 231
312 312 315 314 314 317 315 308 301 293 286 286 285 283 280 276 275 275 274 272 269 267 268 264 261 259 261 261 262 262 255 256 256 250 241 235 234 227 221 222 221 225 227
314 316 317 316 318 320 318 310 306 299 298 294 288 285 282 279 276 275 273 271 270 269 266 267 265 261 260 261 259 261 256 253 254 253 247 238 230 227 225 226 226 227 225
320 322 320 319 321 322 320 312 310 309 308 302 295 290 288 286 282 279 276 272 269 268 266 266 270 267 264 262 263 265 265 265 257 257 255 250 234 226 223 225 227 221 217
316 320 320 318 322 324 320 311 312 316 312 307 302 299 297 293 288 282 280 278 271 268 269 265 268 272 272 271 271 270 271 269 266 262 264 258 238 225 221 218 214 212 212
316 318 318 317 319 323 321 313 316 319 315 311 309 308 305 301 299 291 282 277 275 274 278 274 270 275 276 274 272 268 267 263 265 268 259 252 233 229 224 215 214 218 214
314 315 313 312 314 319 320 321 323 325 320 316 314 314 310 305 302 297 289 285 280 278 281 281 277 273 273 278 289 286 270 262 256 264 254 232 218 218 222 220 215 213 205
311 313 313 312 314 318 319 323 326 326 321 318 318 316 312 310 307 305 304 298 292 299 295 292 289 285 285 292 291 291 289 283 263 248 230 226 226 225 219 214 215 213 209